Stations météo

réclame
Mon MeteoGroup
P11-B, Pays-Bas (6203): Température de l'air & dewpoint: 17.01.2020 22:00:00 - 23.01.2020 22:00:00 (CET)P11-B, Pays-Bas (6203): Vitesse du vent & gusts: 17.01.2020 22:00:00 - 23.01.2020 22:00:00 (CET)P11-B, Pays-Bas (6203): Direction du vent: 17.01.2020 22:00:00 - 23.01.2020 22:00:00 (CET)P11-B, Pays-Bas (6203): reduced air pressure: 17.01.2020 22:00:00 - 23.01.2020 22:00:00 (CET)P11-B, Pays-Bas (6203): visibility: 17.01.2020 22:00:00 - 23.01.2020 22:00:00 (CET)
Date & Time tt [°C] td [°C] ff [km/h] ff [knt] fx [km/h] fx [knt] dd ppp [hPa] vv [km]
23.01.2020 22:00:00 7,4 5,1 9 5 14 8 - 1026,9 10
23.01.2020 21:00:00 7,2 5,3 11 6 14 8 - 1026,9 10
23.01.2020 20:00:00 7,3 5,9 8 4 11 6 - 1027,6 7
23.01.2020 19:00:00 7,4 6,0 11 6 14 8 - 1028,0 6
23.01.2020 18:00:00 7,5 6,2 13 7 14 8 - 1028,3 7
23.01.2020 17:00:00 7,5 6,4 4 2 14 8 - 1028,6 10
23.01.2020 16:00:00 7,5 6,7 2 1 4 2 - 1029,1 10
23.01.2020 15:00:00 7,3 7,0 5 3 22 12 - 1029,8 4,8
23.01.2020 14:00:00 7,8 6,5 5 3 11 6 - 1030,7 10
23.01.2020 13:00:00 7,8 6,7 5 3 7 4 - 1031,7 10
23.01.2020 12:00:00 7,7 6,6 4 2 11 6 - 1032,3 10
23.01.2020 11:00:00 7,8 6,4 13 7 14 8 - 1033,0 10
23.01.2020 10:00:00 8,2 6,6 13 7 18 10 - 1033,1 10
23.01.2020 09:00:00 7,9 7,0 13 7 14 8 - 1033,3 10
23.01.2020 08:00:00 8,1 7,1 11 6 14 8 - 1033,4 15
23.01.2020 07:00:00 8,2 7,4 11 6 11 6 - 1033,5 10
23.01.2020 06:00:00 8,1 7,6 2 1 7 4 - 1033,9 10
23.01.2020 05:00:00 8,3 7,8 8 4 14 8 - 1034,3 10
23.01.2020 04:00:00 7,9 7,5 13 7 14 8 - 1034,8 10
23.01.2020 03:00:00 7,7 7,6 15 8 14 8 - 1035,4 2,4
23.01.2020 02:00:00 7,7 7,6 11 6 14 8 - 1035,8 2,4
23.01.2020 01:00:00 7,8 7,7 15 8 18 10 - 1036,3 1,8
23.01.2020 00:00:00 7,8 7,6 13 7 18 10 - 1036,2 4,2
22.01.2020 23:00:00 8,4 8,3 4 2 7 4 - 1036,4 4,0
22.01.2020 22:00:00 8,3 8,2 2 1 7 4 - 1036,5 0,9
22.01.2020 21:00:00 8,5 8,3 8 4 7 4 - 1036,7 4,2
22.01.2020 20:00:00 8,6 8,1 5 3 7 4 - 1036,7 6
22.01.2020 19:00:00 8,5 7,9 4 2 4 2 - 1036,5 6
22.01.2020 18:00:00 8,5 8,0 2 1 7 4 - 1036,3 4,9
22.01.2020 17:00:00 8,7 7,8 8 4 7 4 - 1036,2 8
22.01.2020 16:00:00 8,6 7,9 8 4 11 6 - 1036,3 6
22.01.2020 15:00:00 8,6 7,9 9 5 11 6 - 1036,2 8
22.01.2020 14:00:00 8,6 7,8 9 5 - - - 1036,5 6
22.01.2020 13:00:00 8,6 7,8 9 5 14 8 - 1036,8 6
22.01.2020 12:00:00 8,5 7,6 13 7 14 8 - 1037,2 8
22.01.2020 11:00:00 8,6 7,5 5 3 14 8 - 1037,2 7
22.01.2020 10:00:00 8,2 6,9 5 3 14 8 - 1037,2 8
22.01.2020 09:00:00 8,4 6,6 9 5 14 8 - 1036,8 8
22.01.2020 08:00:00 7,8 5,6 9 5 14 8 - 1036,5 10
22.01.2020 07:00:00 7,4 5,2 11 6 14 8 - 1036,3 10
22.01.2020 06:00:00 7,2 4,6 9 5 18 10 - 1036,7 10
22.01.2020 05:00:00 6,8 4,3 13 7 14 8 - 1036,7 10
22.01.2020 04:00:00 7,0 4,0 11 6 18 10 - 1037,2 10
22.01.2020 03:00:00 6,7 4,0 9 5 14 8 - 1037,7 10
22.01.2020 02:00:00 6,9 3,9 9 5 14 8 - 1037,8 10
22.01.2020 01:00:00 6,8 3,8 8 4 14 8 - 1038,2 10
22.01.2020 00:00:00 7,0 3,5 8 4 14 8 - 1038,8 10
21.01.2020 23:00:00 6,9 3,0 9 5 14 8 - 1038,7 10
21.01.2020 22:00:00 6,9 2,6 11 6 14 8 - 1038,8 10
21.01.2020 21:00:00 7,3 3,8 11 6 18 10 - 1039,1 10
21.01.2020 20:00:00 7,1 3,9 15 8 22 12 - 1039,4 10
21.01.2020 19:00:00 6,7 3,8 15 8 18 10 - 1039,0 5
21.01.2020 18:00:00 6,6 3,8 13 7 14 8 - 1039,3 10
21.01.2020 17:00:00 7,0 4,1 13 7 18 10 - 1039,7 10
21.01.2020 16:00:00 7,0 4,3 21 11 22 12 - 1039,8 10
21.01.2020 15:00:00 7,1 4,3 22 12 32 18 - 1039,9 6
21.01.2020 14:00:00 7,2 3,9 22 12 22 12 - 1040,4 10
21.01.2020 13:00:00 7,3 4,3 21 11 22 12 - 1041,1 10
21.01.2020 12:00:00 7,2 4,2 22 12 22 12 - 1041,9 10
21.01.2020 11:00:00 7,3 4,9 24 13 25 14 - 1042,0 10
21.01.2020 10:00:00 7,6 4,3 29 16 29 16 - 1041,8 10
21.01.2020 09:00:00 7,8 4,7 29 16 29 16 - 1041,4 8
21.01.2020 08:00:00 7,6 4,5 29 16 32 18 - 1041,2 10
21.01.2020 07:00:00 7,5 4,2 29 16 29 16 - 1041,1 10
21.01.2020 06:00:00 7,4 4,5 24 13 25 14 - 1041,6 10
21.01.2020 05:00:00 7,4 4,5 24 13 25 14 - 1041,8 10
21.01.2020 04:00:00 7,4 4,2 22 12 22 12 - 1042,3 10
21.01.2020 03:00:00 7,4 4,4 21 11 22 12 - 1042,9 10
21.01.2020 02:00:00 7,2 4,3 18 10 18 10 - 1043,3 10
21.01.2020 01:00:00 7,2 4,6 16 9 18 10 - 1043,7 8
21.01.2020 00:00:00 7,4 4,6 16 9 22 12 - 1044,1 10
20.01.2020 23:00:00 7,9 4,4 16 9 18 10 - 1044,4 10
20.01.2020 22:00:00 7,9 3,7 16 9 18 10 - 1044,6 10
20.01.2020 21:00:00 7,9 3,3 16 9 18 10 - 1044,9 10
20.01.2020 20:00:00 7,9 3,4 18 10 22 12 - 1045,0 10
20.01.2020 19:00:00 7,7 3,1 21 11 22 12 - 1045,1 10
20.01.2020 18:00:00 7,5 2,0 21 11 22 12 - 1045,3 10
20.01.2020 17:00:00 7,5 2,6 21 11 25 14 - 1045,5 10
20.01.2020 16:00:00 7,6 2,6 21 11 22 12 - 1046,0 10
20.01.2020 15:00:00 7,7 1,5 22 12 25 14 - 1046,3 10
20.01.2020 14:00:00 7,8 2,0 21 11 22 12 - 1046,8 10
20.01.2020 13:00:00 7,8 1,6 18 10 18 10 - 1047,2 10
20.01.2020 12:00:00 7,9 0,4 18 10 18 10 - 1047,6 10
20.01.2020 11:00:00 7,9 0,6 16 9 18 10 - 1047,6 10
20.01.2020 10:00:00 7,9 1,1 16 9 18 10 - 1047,5 10
20.01.2020 09:00:00 8,0 1,3 16 9 18 10 - 1047,5 10
20.01.2020 08:00:00 8,1 1,4 16 9 22 12 - 1047,2 10
20.01.2020 07:00:00 8,0 2,8 11 6 18 10 - 1047,3 10
20.01.2020 06:00:00 7,9 0,2 15 8 18 10 - 1046,9 10
20.01.2020 05:00:00 7,9 1,0 15 8 18 10 - 1047,3 10
20.01.2020 04:00:00 7,8 2,4 15 8 18 10 - 1047,4 10
20.01.2020 03:00:00 7,7 3,3 15 8 18 10 - 1047,8 10
20.01.2020 02:00:00 7,9 3,0 11 6 18 10 - 1047,4 10
20.01.2020 01:00:00 8,0 3,5 9 5 14 8 - 1047,4 10
20.01.2020 00:00:00 8,1 3,2 13 7 18 10 - 1047,5 10
19.01.2020 23:00:00 7,8 2,8 15 8 22 12 - 1047,5 10
19.01.2020 22:00:00 7,9 3,7 22 12 25 14 - 1047,3 10
19.01.2020 21:00:00 7,8 3,5 18 10 25 14 - 1047,1 10
19.01.2020 20:00:00 7,9 3,9 22 12 29 16 - 1046,5 10
19.01.2020 19:00:00 7,9 4,0 22 12 25 14 - 1045,6 10
19.01.2020 18:00:00 7,9 3,8 26 14 29 16 - 1045,3 10
19.01.2020 17:00:00 8,0 3,6 24 13 29 16 - 1044,3 10
19.01.2020 16:00:00 8,1 3,8 28 15 32 18 - 1043,7 10
19.01.2020 15:00:00 8,3 3,5 26 14 40 21 - 1042,7 10
19.01.2020 14:00:00 8,5 3,6 26 14 32 18 - 1042,6 10
19.01.2020 13:00:00 8,4 3,3 22 12 32 18 - 1042,2 10
19.01.2020 12:00:00 8,4 2,9 21 11 32 18 - 1041,7 10
19.01.2020 11:00:00 8,3 2,0 29 16 47 25 - 1041,2 10
19.01.2020 10:00:00 8,1 2,1 24 13 36 19 - 1040,2 10
19.01.2020 09:00:00 7,0 0,5 29 16 50 27 - 1038,9 2,9
19.01.2020 08:00:00 8,1 1,7 24 13 47 25 - 1037,4 10
19.01.2020 07:00:00 7,3 1,4 39 21 61 33 - 1036,4 10
19.01.2020 06:00:00 7,5 3,3 44 24 54 29 - 1035,4 10
19.01.2020 05:00:00 6,0 2,7 31 17 47 25 - 1035,2 10
19.01.2020 04:00:00 6,8 3,1 39 21 54 29 - 1034,5 10
19.01.2020 03:00:00 7,5 2,4 44 24 50 27 - 1033,8 10
19.01.2020 02:00:00 7,6 1,7 44 24 54 29 - 1032,8 10
19.01.2020 01:00:00 7,7 1,4 34 18 43 23 - 1032,1 10
19.01.2020 00:00:00 6,9 1,3 42 23 54 29 - 1031,7 10
18.01.2020 23:00:00 7,8 1,4 31 17 40 21 - 1030,7 10
18.01.2020 22:00:00 7,8 1,8 39 21 61 33 - 1030,1 4,8
18.01.2020 21:00:00 7,6 2,7 28 15 36 19 - 1029,7 10
18.01.2020 20:00:00 7,5 2,2 28 15 36 19 - 1029,3 10
18.01.2020 19:00:00 7,3 1,8 28 15 36 19 - 1028,7 10
18.01.2020 18:00:00 7,2 1,9 24 13 32 18 - 1027,9 10
18.01.2020 17:00:00 7,3 2,6 24 13 36 19 - 1026,9 10
18.01.2020 16:00:00 7,2 2,9 24 13 32 18 - 1026,0 10
18.01.2020 15:00:00 7,2 2,5 24 13 36 19 - 1025,3 10
18.01.2020 14:00:00 7,1 2,0 34 18 40 21 - 1024,7 10
18.01.2020 13:00:00 6,8 3,1 29 16 40 21 - 1024,2 10
18.01.2020 12:00:00 6,7 3,0 34 18 43 23 - 1023,9 10
18.01.2020 11:00:00 6,4 2,5 35 19 47 25 - 1023,3 10
18.01.2020 10:00:00 6,3 2,8 41 22 43 23 - 1022,4 10
18.01.2020 09:00:00 6,3 2,7 34 18 43 23 - 1021,6 10
18.01.2020 08:00:00 6,5 2,9 35 19 43 23 - 1020,6 10
18.01.2020 07:00:00 6,7 3,4 35 19 43 23 - 1019,8 10
18.01.2020 06:00:00 6,1 3,1 37 20 43 23 - 1019,4 10
18.01.2020 05:00:00 6,2 3,1 39 21 47 25 - 1019,0 10
18.01.2020 04:00:00 6,7 3,2 39 21 43 23 - 1018,7 10
18.01.2020 03:00:00 7,2 3,4 41 22 43 23 - 1018,5 10
18.01.2020 02:00:00 7,3 3,4 42 23 47 25 - 1018,0 10
18.01.2020 01:00:00 7,5 3,4 46 25 47 25 - 1017,5 10
18.01.2020 00:00:00 7,6 2,7 48 26 50 27 - 1017,1 10
17.01.2020 23:00:00 7,7 2,8 52 28 54 29 - 1016,5 7
17.01.2020 22:00:00 7,8 3,0 55 30 58 31 - 1015,9 10

tt = Température de l'air
td = dewpoint
ff = Vitesse du vent
fx = gusts
dd = Direction du vent
ppp = reduced air pressure
vv = visibility

stations d'obs. à proximité